Location: *
(51.5000°N, 0.1100°W)
Time: 06:57:35
(UTC+00:00)

Cosmos 1455 - Pass Details

Date: 14 August 2024
Orbit: 432 x 446 km, 82.5° (Epoch: 07 September)

Event Time Altitude Azimuth Distance (km) Brightness Sun altitude
Exits shadow 03:12:54 - 172° (S) 1,736 4.5 -12.7°
Reaches altitude 10° 03:13:17 10° 170° (S) 1,578 4.3 -12.6°
Maximum altitude 03:16:37 48° 96° (E) 598 2.8 -12.3°
Drops below altitude 10° 03:19:56 10° 21° (NNE) 1,576 5.7 -11.9°
Sets 03:22:02 0° 15° (NNE) 2,449 6.7 -11.6°
